| time (UTC) | temp F | wind direction | speed MPH | gust MPH | rain 1hr in | rain 24hr in | rain mn in | humidity % | barometer mb |
| 20260505230014 | 57 | 142 | 2.0 | 6.0 | 0.00 | 0.04 | 0.00 | 81 | 1013.1 |
| 20260505224511 | 57 | 160 | 2.0 | 5.0 | 0.00 | 0.04 | 0.00 | 81 | 1013.3 |
| 20260505223010 | 57 | 166 | 3.0 | 7.0 | 0.00 | 0.04 | 0.00 | 81 | 1013.3 |
| 20260505221509 | 57 | 148 | 4.0 | 7.0 | 0.00 | 0.04 | 0.00 | 82 | 1013.4 |
| 20260505220008 | 57 | 134 | 2.0 | 5.0 | 0.00 | 0.04 | 0.00 | 81 | 1013.3 |
| 20260505214505 | 57 | 186 | 0.0 | 5.0 | 0.00 | 0.04 | 0.04 | 81 | 1013.4 |
| 20260505213007 | 57 | 155 | 0.0 | 0.0 | 0.00 | 0.04 | 0.04 | 81 | 1013.5 |
| 20260505211505 | 57 | 158 | 1.0 | 5.0 | 0.00 | 0.04 | 0.04 | 81 | 1013.6 |
| 20260505210004 | 57 | 165 | 3.0 | 6.0 | 0.00 | 0.04 | 0.04 | 81 | 1013.7 |
| 20260505204504 | 57 | 204 | 0.0 | 0.0 | 0.00 | 0.04 | 0.04 | 82 | 1013.5 |
| 20260505203016 | 57 | 204 | 0.0 | 1.0 | 0.00 | 0.04 | 0.04 | 82 | 1013.5 |
| 20260505201503 | 57 | 200 | 0.0 | 1.0 | 0.00 | 0.04 | 0.04 | 82 | 1013.6 |
| 20260505200003 | 57 | 203 | 0.0 | 3.0 | 0.01 | 0.04 | 0.04 | 82 | 1013.6 |
| 20260505194502 | 57 | 182 | 2.0 | 5.0 | 0.01 | 0.04 | 0.04 | 82 | 1013.4 |
| 20260505193130 | 58 | 195 | 2.0 | 9.0 | 0.01 | 0.04 | 0.04 | 81 | 1013.4 |
| 20260505191607 | 58 | 138 | 2.0 | 9.0 | 0.01 | 0.04 | 0.04 | 81 | 1013.3 |
| 20260505190100 | 58 | 150 | 3.0 | 10.0 | 0.00 | 0.03 | 0.03 | 81 | 1013.2 |
| 20260505184603 | 58 | 144 | 4.0 | 7.0 | 0.00 | 0.03 | 0.03 | 81 | 1013.1 |
| 20260505183059 | 58 | 150 | 4.0 | 7.0 | 0.00 | 0.03 | 0.03 | 81 | 1012.9 |
| 20260505181558 | 58 | 167 | 4.0 | 7.0 | 0.00 | 0.03 | 0.03 | 81 | 1012.8 |
| 20260505180058 | 58 | 159 | 2.0 | 7.0 | 0.00 | 0.03 | 0.03 | 80 | 1012.9 |
| 20260505174558 | 59 | 134 | 7.0 | 11.0 | 0.00 | 0.03 | 0.03 | 79 | 1012.8 |
| 20260505173059 | 59 | 135 | 5.0 | 13.0 | 0.00 | 0.03 | 0.03 | 78 | 1012.8 |
| 20260505171555 | 60 | 162 | 4.0 | 7.0 | 0.00 | 0.03 | 0.03 | 76 | 1012.8 |
| 20260505170054 | 60 | 188 | 0.0 | 5.0 | 0.00 | 0.03 | 0.03 | 76 | 1012.7 |
| 20260505164553 | 60 | 118 | 4.0 | 7.0 | 0.00 | 0.03 | 0.03 | 75 | 1012.7 |
| 20260505163054 | 60 | 200 | 1.0 | 4.0 | 0.00 | 0.03 | 0.03 | 77 | 1012.8 |
| 20260505161654 | 60 | 198 | 2.0 | 5.0 | 0.00 | 0.03 | 0.03 | 76 | 1012.8 |
| 20260505153101 | 60 | 157 | 3.0 | 8.0 | 0.00 | 0.03 | 0.03 | 76 | 1012.9 |
| 20260505151548 | 60 | 119 | 4.0 | 9.0 | 0.00 | 0.03 | 0.03 | 76 | 1013.0 |
| 20260505124537 | 61 | 156 | 4.0 | 10.0 | 0.01 | 0.03 | 0.03 | 77 | 1013.9 |
| 20260505123048 | 61 | 170 | 4.0 | 8.0 | 0.01 | 0.03 | 0.03 | 77 | 1014.0 |
| 20260505121537 | 60 | 184 | 2.0 | 7.0 | 0.00 | 0.02 | 0.02 | 78 | 1014.0 |
| 20260505120043 | 60 | 282 | 1.0 | 4.0 | 0.00 | 0.02 | 0.02 | 79 | 1014.0 |
| 20260505114534 | 59 | 164 | 3.0 | 7.0 | 0.01 | 0.02 | 0.02 | 80 | 1014.2 |
| 20260505113033 | 59 | 232 | 1.0 | 4.0 | 0.01 | 0.02 | 0.02 | 81 | 1014.4 |
| 20260505111535 | 58 | 161 | 4.0 | 6.0 | 0.01 | 0.02 | 0.02 | 80 | 1014.4 |
| 20260505101533 | 59 | 162 | 3.0 | 5.0 | 0.01 | 0.02 | 0.02 | 77 | 1014.4 |
| 20260505100032 | 59 | 234 | 1.0 | 5.0 | 0.01 | 0.01 | 0.01 | 77 | 1014.3 |
| 20260505094528 | 59 | 139 | 3.0 | 4.0 | 0.01 | 0.01 | 0.01 | 75 | 1014.2 |
| 20260505093027 | 58 | 196 | 3.0 | 5.0 | 0.01 | 0.01 | 0.01 | 75 | 1014.3 |
| 20260505091530 | 58 | 144 | 3.0 | 8.0 | 0.01 | 0.01 | 0.01 | 75 | 1014.4 |
| 20260505090026 | 59 | 223 | 5.0 | 11.0 | 0.00 | 0.00 | 0.00 | 73 | 1014.4 |
| 20260505084541 | 60 | 150 | 3.0 | 11.0 | 0.00 | 0.00 | 0.00 | 69 | 1014.1 |
| 20260505083042 | 60 | 208 | 1.0 | 4.0 | 0.00 | 0.00 | 0.00 | 68 | 1014.0 |
| 20260505081526 | 61 | 178 | 2.0 | 4.0 | 0.00 | 0.00 | 0.00 | 65 | 1013.9 |
| 20260505080034 | 61 | 69 | 0.0 | 2.0 | 0.00 | 0.00 | 0.00 | 62 | 1013.6 |
| 20260505074521 | 60 | 309 | 0.0 | 3.0 | 0.00 | 0.00 | 0.00 | 63 | 1013.6 |
| 20260505073034 | 60 | 308 | 2.0 | 3.0 | 0.00 | 0.00 | 0.00 | 64 | 1013.6 |
| 20260505071521 | 59 | 317 | 2.0 | 5.0 | 0.00 | 0.00 | 0.00 | 65 | 1013.7 |
| 20260505070019 | 59 | 285 | 1.0 | 4.0 | 0.00 | 0.00 | 0.00 | 65 | 1013.8 |
| 20260505064519 | 58 | 298 | 2.0 | 5.0 | 0.00 | 0.00 | 0.00 | 66 | 1013.8 |
| 20260505063018 | 57 | 307 | 3.0 | 8.0 | 0.00 | 0.00 | 0.00 | 68 | 1013.8 |
| 20260505061526 | 57 | 329 | 2.0 | 5.0 | 0.00 | 0.00 | 0.00 | 68 | 1013.8 |
| 20260505060035 | 57 | 282 | 1.0 | 5.0 | 0.00 | 0.00 | 0.00 | 67 | 1014.0 |
| 20260505054518 | 57 | 277 | 1.0 | 2.0 | 0.00 | 0.00 | 0.00 | 68 | 1013.9 |
| 20260505053015 | 56 | 279 | 1.0 | 3.0 | 0.00 | 0.00 | 0.00 | 70 | 1013.9 |
| 20260505051514 | 55 | 311 | 0.0 | 3.0 | 0.00 | 0.00 | 0.00 | 73 | 1013.8 |
| 20260505041509 | 53 | 318 | 0.0 | 3.0 | 0.00 | 0.00 | 0.00 | 76 | 1014.0 |
| 20260505040008 | 54 | 317 | 0.0 | 4.0 | 0.00 | 0.00 | 0.00 | 75 | 1013.9 |
| 20260505034506 | 54 | 94 | 0.0 | 0.0 | 0.00 | 0.00 | 0.00 | 74 | 1014.1 |
| 20260505033004 | 54 | 94 | 0.0 | 0.0 | 0.00 | 0.00 | 0.00 | 74 | 1014.2 |
| 20260505031503 | 55 | 95 | 0.0 | 2.0 | 0.00 | 0.00 | 0.00 | 73 | 1014.3 |
| 20260505030003 | 55 | 80 | 1.0 | 5.0 | 0.00 | 0.00 | 0.00 | 73 | 1014.4 |
| 20260505024601 | 56 | 292 | 2.0 | 4.0 | 0.00 | 0.00 | 0.00 | 71 | 1014.2 |
| 20260505023059 | 56 | 310 | 1.0 | 2.0 | 0.00 | 0.00 | 0.00 | 72 | 1014.2 |
| 20260505021556 | 56 | 309 | 2.0 | 4.0 | 0.00 | 0.00 | 0.00 | 70 | 1014.4 |
| 20260505020051 | 58 | 331 | 2.0 | 4.0 | 0.00 | 0.00 | 0.00 | 66 | 1014.6 |
| 20260505014603 | 60 | 213 | 2.0 | 5.0 | 0.00 | 0.00 | 0.00 | 64 | 1014.6 |
| 20260505013051 | 60 | 234 | 1.0 | 4.0 | 0.00 | 0.00 | 0.00 | 61 | 1014.7 |
| 20260505011546 | 60 | 121 | 0.0 | 4.0 | 0.00 | 0.00 | 0.00 | 62 | 1014.7 |
| 20260505010053 | 60 | 111 | 3.0 | 7.0 | 0.00 | 0.00 | 0.00 | 63 | 1014.8 |
| 20260505004548 | 60 | 192 | 2.0 | 3.0 | 0.00 | 0.00 | 0.00 | 63 | 1014.9 |
| 20260505003053 | 61 | 98 | 0.0 | 3.0 | 0.00 | 0.00 | 0.00 | 61 | 1015.0 |
| 20260505001535 | 62 | 146 | 1.0 | 3.0 | 0.00 | 0.00 | 0.00 | 60 | 1015.1 |
| 20260505000035 | 63 | 135 | 1.0 | 5.0 | 0.00 | 0.00 | 0.00 | 59 | 1015.1 |
| 20260504234529 | 63 | 205 | 4.0 | 7.0 | 0.00 | 0.00 | 0.00 | 58 | 1015.2 |
| 20260504233034 | 63 | 136 | 3.0 | 5.0 | 0.00 | 0.00 | 0.00 | 57 | 1015.4 |
| 20260504231527 | 63 | 155 | 3.0 | 5.0 | 0.00 | 0.00 | 0.00 | 56 | 1015.4 |